Regional Weather Roundup
Issued by NWS State College, PA

Home | Current Version | Previous Version | Text Only | Print | Product List | Glossary Off
Versions: 1 2 3 4 5 6 7 8 9 10 11 12 13 14 15 16 17 18 19 20 21 22 23 24 25 26 27 28 29 30 31 32 33 34 35 36 37 38 39 40 41 42 43 44 45 46 47 48 49 50

000
ASUS41 KCTP 160203
RWRCTP

REGIONAL WEATHER ROUNDUP
NATIONAL WEATHER SERVICE STATE COLLEGE PA
900 PM EST SUN JAN 15 2017

Note: "fair" indicates few or no clouds below 12,000 feet with no
significant weather and/or obstructions to visibility.

* = STATION THAT DOES NOT REPORT PRECIPITATION /E.G. RAIN...SNOW...ETC/
    THUNDER OR FOG.

PAZ002>004-007>009-013>016-020>023-029>032-160300-
WESTERN PENNSYLVANIA

CITY           SKY/WX    TMP DP  RH WIND       PRES   REMARKS
ERIE           CLEAR     24  20  84 S3        30.37F
MEADVILLE      CLOUDY    26  18  71 CALM      30.34R
FRANKLIN*        N/A     27  16  63 CALM      30.35S
NEW CASTLE     FAIR      25  20  81 CALM      30.37S
BEAVER COUNTY  NOT AVBL
BUTLER*        CLOUDY    25  16  68 CALM      30.37F
PITTSBURGH INT CLOUDY    29  21  72 CALM      30.35F
PITTSBURGH     CLOUDY    31  18  58 CALM      30.35S
INDIANA*       MOCLDY    27  21  80 CALM      30.38R
LATROBE        MOCLDY    27  21  80 CALM      30.37S
WASHINGTON CO* CLOUDY    27  25  93 CALM      30.35F
$$

PAZ004>006-010>012-017>019-024>028-033>037-041-042-045-046-049>053-160300-
CENTRAL PENNSYLVANIA

CITY           SKY/WX    TMP DP  RH WIND       PRES   REMARKS
BRADFORD       CLEAR     20  17  88 CALM      30.30R
DUBOIS         CLOUDY    26  15  63 CALM      30.31S
CLEARFIELD     CLOUDY    25  21  85 CALM      30.34S
JOHNSTOWN      CLOUDY    29  13  51 NW5       30.29F
ALTOONA        CLOUDY    31  17  56 CALM      30.34S
STATE COLLEGE  CLEAR     28  19  69 CALM      30.35S
WILLIAMSPORT   CLOUDY    25  20  81 CALM      30.39F
SELINSGROVE    CLOUDY    20  19  96 CALM      30.41S
FT INDIANTOWN  PTCLDY    26  22  85 NW3       30.40S
CAPITAL CITY   CLOUDY    30  19  63 CALM      30.41S
HARRISBURG     CLOUDY    29  24  82 CALM      30.41S
YORK           CLOUDY    23  22  96 CALM      30.40R
$$

PAZ038>040-043-044-047-048-054-055-060>062-067>071-160300-
EASTERN PENNSYLVANIA

CITY           SKY/WX    TMP DP  RH WIND       PRES   REMARKS
SCRANTON       CLEAR     22  17  81 E6        30.37F WCI  14
MOUNT POCONO   CLEAR     16  13  88 NW5       30.31S WCI   9
ALLENTOWN      PTCLDY    25  16  68 CALM      30.41S
QUAKERTOWN*    CLOUDY    23  19  86 CALM      30.40S
READING        CLOUDY    28  19  69 CALM      30.41S
LANCASTER      CLOUDY    30  21  69 CALM      30.40S
COATESVILLE    PTCLDY    32  19  59 N3        30.40S
POTTSTOWN      CLOUDY    25  19  78 CALM      30.42R
BLUE BELL      CLEAR     28  23  80 CALM      30.40F
DOYLESTOWN     CLOUDY    27  21  78 CALM      30.40R
WILLOW GROVE   NOT AVBL
NORTH PHILA    CLEAR     32  21  64 NW5       30.43R
PHILADELPHIA   CLOUDY    34  20  56 N7        30.43R
$$




USA.gov is the U.S. government's official web portal to all federal, state and local government web resources and services.